| time (UTC) | temp F | wind direction | speed knots | gust knots | rain 1hr in | rain 24hr in | rain mn in | humidity % | barometer mb |
| 20260504170611 | 79 | 315 | 0.0 | 1.7 | 0.00 | 0.00 | 0.00 | 31 | 1009.4 |
| 20260504150547 | 80 | 274 | 1.7 | 3.5 | 0.00 | 0.00 | 0.00 | 30 | 1009.8 |
| 20260504140535 | 81 | 280 | 1.7 | 4.3 | 0.00 | 0.00 | 0.00 | 29 | 1010.1 |
| 20260504110556 | 74 | 109 | 0.9 | 3.5 | 0.00 | 0.00 | 0.00 | 37 | 1011.5 |
| 20260504100544 | 72 | 275 | 2.6 | 5.2 | 0.00 | 0.00 | 0.00 | 40 | 1012.1 |
| 20260504090123 | 69 | 272 | 7.8 | 7.8 | 0.00 | 0.00 | 0.00 | 41 | 1012.3 |
| 20260503204250 | 69 | 273 | 0.9 | 2.6 | 0.00 | 0.00 | 0.00 | 37 | 1012.7 |
| 20260503202747 | 69 | 282 | 0.9 | 5.2 | 0.00 | 0.00 | 0.00 | 36 | 1012.6 |
| 20260503201244 | 69 | 275 | 1.7 | 3.5 | 0.00 | 0.00 | 0.00 | 35 | 1012.6 |
| 20260503195741 | 70 | 270 | 0.9 | 2.6 | 0.00 | 0.00 | 0.00 | 34 | 1012.6 |
| 20260503194238 | 70 | 271 | 1.7 | 4.3 | 0.00 | 0.00 | 0.00 | 34 | 1012.7 |
| 20260503192735 | 71 | 270 | 2.6 | 4.3 | 0.00 | 0.00 | 0.00 | 33 | 1012.7 |
| 20260503191232 | 71 | 270 | 3.5 | 5.2 | 0.00 | 0.00 | 0.00 | 32 | 1012.6 |
| 20260503185729 | 72 | 284 | 3.5 | 3.5 | 0.00 | 0.00 | 0.00 | 32 | 1012.5 |
| 20260503184226 | 73 | 276 | 2.6 | 5.2 | 0.00 | 0.00 | 0.00 | 31 | 1012.4 |
| 20260503182723 | 73 | 276 | 1.7 | 4.3 | 0.00 | 0.00 | 0.00 | 30 | 1012.2 |
| 20260503181220 | 74 | 270 | 0.0 | 5.2 | 0.00 | 0.00 | 0.00 | 29 | 1012.2 |
| 20260503175717 | 75 | 275 | 1.7 | 4.3 | 0.00 | 0.00 | 0.00 | 28 | 1012.1 |
| 20260503174213 | 76 | 271 | 2.6 | 3.5 | 0.00 | 0.00 | 0.00 | 27 | 1012.0 |
| 20260503172710 | 78 | 272 | 5.2 | 6.1 | 0.00 | 0.00 | 0.00 | 25 | 1012.1 |